Starlink 32651

operational
NORAD ID: 62314 Int'l Des: 2024-239 Owner: SPXS Country: US Constellation: starlink
LEOCIRCULAR

About Starlink 32651

Description loading...

Live Position

Loading 3D Globe...

Upcoming Passes

Altitude History

Altitude vs Time

uPlot chart will show altitude changes over time

Two-Line Element Set

1 62314U 24239P 25306.05551228 .00048991 00000-0 16551-2 0 9991
2 62314 53.1596 66.6870 0001754 80.1326 279.9873 15.30204054 49841
Epoch: Nov 2, 2025 • Age: 32 hours

Current Status

Altitude 477.4 km
Velocity 7.63 km/s
Sub-Earth Point 39.89°N, 77.46°W
Launch Date Dec 13, 2024
Age 0.8 years
Type internet

Technical Details

Classification Payload
Mass 730.00 kg
Dry Mass 700.00 kg
Total Mass 730.00 kg
Length 0.30 m
Diameter 4.10 m
Span 29.00 m
Shape Box + pan
Manufacturer SPXS
Bus Type Starlink V2M
Phase Status In Orbit
Owner/State SPXS/US

Large Constellations

Loading constellations...